www.pogodaiklimat.ru
ПОГОДА в Джалинде

Архив погоды в Джалинде (Амурская область, Россия)

Время
(UTC), дата
03 10.08
06 10.08
09 10.08
12 10.08
15 10.08
18 10.08
21 10.08
00 11.08
03 11.08
06 11.08
09 11.08
12 11.08
15 11.08
18 11.08
21 11.08
00 12.08
03 12.08
06 12.08
09 12.08
12 12.08
15 12.08
18 12.08
21 12.08
00 13.08
03 13.08
06 13.08
09 13.08
12 13.08
15 13.08
18 13.08
21 13.08
00 14.08
03 14.08
06 14.08
09 14.08
12 14.08
15 14.08
21 14.08
00 15.08
03 15.08
06 15.08
09 15.08
12 15.08
15 15.08
18 15.08
21 15.08
00 16.08
03 16.08
06 16.08
09 16.08
12 16.08
15 16.08
18 16.08
21 16.08
Ветер
(напр.,м/с)
Видим. Явления Облачность Т
(С)
Тd
(С)
f
(%)
Тe
(С)
Тes
(С)
Комфортность P
(гПа)
Po
(гПа)
Тmin
(С)
Tmax
(С)
R
(мм)
R24
(мм)
S
(см)
СЗ 3 50 км 10/8 600 м
[Cb cap Ac trans Ci]
+17.6 +13.7 78 +18 +19 996.6 966.1
СЗ 2 20 км слаб. ливневой дождь 10/10 600 м
[Cb cap]
+16.0 +15.3 96 +16 +16 996.6 966.0
СЗ 3 50 км в посл. час ливневой дождь 10/10 600 м
[Cb cap]
+16.8 +13.8 82 +17 +17 997.2 966.7
СЗ 1 50 км {ливн. дождь} 10/10 600 м
[Cb cap]
+14.5 +13.0 91 +15 +15 998.8 967.9 +19.7 7
СЗ 1 50 км в посл. час ливневой дождь 10/10 600 м
[Cb cap]
+13.4 +12.4 94 +13 +13 999.7 968.7
СЗ 2 50 км {ливн. дождь} 10/10 600 м
[Cb cap]
+12.3 +11.4 94 +11 +11 1000.0 968.8
СЗ 3 50 км 10/8 600 м
[Cb cap Ac trans Ci]
+12.1 +11.0 93 +10 +10 1000.9 969.7
СЗ 3 50 км 5/0
[Ci]
+16.5 +11.7 73 +16 +21 1001.6 970.8 +11.1 0.4
С 2 50 км 8/4 600 м
[Cu hum Ci]
+21.5 +12.3 56 +24 +31 комфорт 1000.6 970.4
СЗ 3 50 км 10/5 600 м
[Cb cap As op]
+19.5 +13.3 67 +21 +22 комфорт 1001.4 970.9
СЗ 2
{11}
10 км слаб. ливневой дождь 10/6 600 м
[Cb cap Ac As]
+16.0 +14.6 91 +16 +16 1002.7 971.9
С 1 20 км {ливн. дождь} 8/6 600 м
[Cb cap Ac lent]
+14.9 +13.6 92 +15 +15 1003.3 972.4 +21.8 2
С 2 20 км 8/5 600 м
[Cb cap Ac trans]
+13.6 +12.4 92 +13 +13 1003.6 972.5
СЗ 3 20 км 8/4 600 м
[Sc Ci]
+12.6 +11.4 92 +11 +11 1003.5 972.3
С 1 20 км 6/3 600 м
[Sc Ac trans]
+11.8 +10.8 94 +12 +12 1004.0 972.7
СЗ 3 50 км 10/5 1000 м
[Sc Ci]
+15.9 +12.8 82 +15 +17 1003.4 972.5 +11.8
СЗ 3 50 км 10/8 600 м
[Cb cap Ci]
+21.2 +13.4 61 +24 +25 комфорт 1002.5 972.2
СЗ 3 50 км 10/8 600 м
[Cb cap Ci]
+21.7 +13.5 60 +24 +26 комфорт 1001.3 971.1
СЗ 2 50 км 10/4 600 м
[Cb cap Cc]
+21.1 +13.9 63 +24 +25 комфорт 1001.1 970.9
С 1 50 км 9/9 600 м
[Cb cap]
+16.5 +14.5 88 +17 +17 1002.8 972.0 +23.5
С 1 50 км 10/3 1000 м
[Sc Ac lent Ci]
+13.7 +12.9 95 +14 +14 1003.8 972.6
штиль 0 50 км 10/3 1000 м
[Sc Ac lent Ci]
+12.6 +12.0 96 +12 +12 1004.3 973.0
СЗ 2 20 км 10/3 1000 м
[Sc Ac As]
+12.8 +12.2 96 +12 +12 1005.0 973.7
СЗ 2 50 км 9/8 1000 м
[Sc Ac trans]
+16.5 +14.0 85 +17 +17 1005.1 974.2 +12.1
СЗ 2 50 км 8/6 600 м
[Cb cap Ac trans]
+22.2 +13.8 59 +25 +29 комфорт 1004.1 973.8
З 2 50 км {ливн. дождь} 9/8 600 м
[Cb cap Ci ing]
+22.6 +14.4 60 +26 +28 жарко 1003.3 973.1
С 1 10 км ливневой дождь, в посл. час гроза 9/6 600 м
[Cb cap Ac trans Ci]
+19.1 +16.3 84 +22 +22 комфорт 1004.0 973.5
ЮВ 1 50 км {гроза, ливн. дождь} 3/3 1000 м
[Sc diur, vesp]
+15.9 +15.1 95 +17 +17 1005.2 974.3 +24.6 0.7
С 1 4000 м дымка ясно +12.5 +12.0 97 +12 +12 1006.0 974.7
СЗ 1 500 м туман ясно +11.1 +10.6 97 +11 +11 1005.8 974.3
З 1 200 м туман ?/? +11.1 +10.7 97 +11 +11 1006.1 974.6
З 1 500 м туман ?/? +12.6 +12.1 97 +12 +12 1006.2 974.9 +10.8
ЮЗ 2 50 км {туман} 3/0
[Ci]
+21.4 +15.0 67 +25 +36 комфорт 1003.8 973.5
ЮВ 1 50 км {туман} 5/3 1000 м
[Cu hum Ci]
+25.0 +14.5 52 +28 +35 жарко 1001.7 971.8
штиль 0 50 км 8/5 600 м
[Cb cap Ci]
+26.8 +14.1 46 +29 +30 жарко 1000.9 971.2
штиль 0 50 км в посл. час гроза 10/8 600 м
[Cb cap Ci]
+15.6 +13.5 87 +15 +15 1003.6 972.7 +28.0
ЮВ 1 50 км гроза без осадков 10/8 600 м
[Cb cap Ac trans]
+14.6 +13.3 92 +15 +15 1004.7 973.7
ЮЗ 1 500 м туман ?/? +11.5 +11.0 97 +11 +11 1006.0 974.5
СЗ 1 500 м туман ?/? +13.2 +12.8 97 +13 +13 1006.4 975.2 +11.3 4
З 1 50 км {туман} 3/3 600 м
[Cu hum Ci fib]
+22.0 +14.6 63 +25 +36 комфорт 1005.0 974.7
З 1 50 км {туман} 8/4 600 м
[Cu med, cong Ci]
+25.4 +14.9 52 +28 +34 жарко 1003.1 973.2
З 1 50 км 3/0
[Ci]
+26.0 +13.3 45 +28 +30 жарко 1002.1 972.3
штиль 0 50 км 1/0
[Ci fib]
+15.9 +15.0 94 +16 +16 1003.6 972.7 +26.6
штиль 0 50 км зарница 5/4 600 м
[Cb cap Ci]
+11.8 +11.3 97 +11 +11 1004.2 972.9
СЗ 1 1000 м дымка 4/4 1000 м
[Sc]
+12.0 +11.6 97 +12 +12 1003.5 972.2
ЮВ 1 500 м туман ?/? +12.3 +11.9 97 +12 +12 1003.1 971.9
СЗ 2 10 км в посл. час туман ясно +15.0 +14.5 97 +15 +20 1003.4 972.4 +10.9
З 1 50 км 4/0
[Ci]
+23.6 +13.5 53 +26 +39 жарко 1001.0 971.0
ЮВ 2 50 км 10/0
[Ci]
+27.1 +14.1 45 +29 +37 жарко 998.7 969.1
ЮВ 2 50 км 10/3 1000 м
[Cu med, cong Ac trans Ci]
+24.6 +16.3 60 +28 +29 душно 996.9 967.2
ЮВ 1
{10}
50 км в посл. час гроза {ливн. дождь} 9/9 600 м
[Cb cap]
+16.8 +15.8 94 +18 +18 998.8 968.2 +27.7 1
Ю 1 50 км {ливн. дождь} 10/10 600 м
[Cb cap]
+16.3 +15.4 94 +17 +17 999.4 968.7
В 1 20 км {ливн. дождь} 10/5 600 м
[Cb cap Ac As]
+15.0 +14.4 96 +15 +15 999.1 968.3
С 1 500 м туман 10/6 600 м
[Cb cap Ci]
+13.9 +13.4 97 +14 +14 999.9 969.0
Местоположение метеостанции Джалинда (Амурская область, Россия): широта 53.47 долгота 123.90 высота над уровнем моря 266 м.
В архиве по умолчанию представлена погода в Джалинде за последнюю неделю. Архивные данные за месяц целиком и за предыдущие месяцы, начиная с января 2011 года, Вы можете получить, выбрав интересующий диапазон дат из раскрывающегося списка и нажав кнопку "Найти!".
*Определитесь, кто Вы:
Внимание! Время в таблицах - всемирное. Для получения местного времени необходимо прибавить поправку, которая равна 9 ч.
Смотрите также архив погоды в соседних городах и на ближайших метеорологических станциях:
Партнеры нашего сайта:      
Пояснения к столбцам:
  • Ветер - указаны скорость ветра в м/с - средняя за 10 мин, порывы в срок и между сроками (в фигурных скобках) и направление, откуда дует ветер: С - северный,
  • СВ - северо-восточный, В - восточный, ЮВ - юго-восточный, Ю - южный, ЮЗ - юго-западный, З - западный, СЗ - северо-западный.
  • Видимость - горизонтальная дальность видимости в метрах или километрах. При видимости от 1 до 10 км при отсутствии осадков обычно наблюдается дымка, при ухудшении видимости до 1 км и менее - туман. В сухую погоду видимость может ухудшаться дымом, пылью или мглою.
  • Явления - указаны атмосферные явления, наблюдавшиеся в срок или в последний час перед сроком; фигурными скобками обозначены явления, наблюдавшиеся между сроками (за 1-3 часа до срока); квадратными скобками обозначены град или гололедные отложения с указанием их диаметра в мм.
  • Облачность - указаны через наклонную черту общая и нижняя облачность в баллах и высота нижней границы облаков в метрах; квадратными скобками обозначены формы облаков: Ci - перистые, Cs - перисто-слоистые, Cc - перисто-кучевые, Ac - высококучевые, As - высокослоистые, Sc - слоисто-кучевые, Ns - слоисто-дождевые, Cu - кучевые, Cb - кучево-дождевые. Подробнее классификацию облаков см. в Атласе облаков (PDF).
  • T - Температура воздуха - температура, измеренная на высоте 2 м над землей.
  • Td - Температура точки росы - температура, при понижении до которой содержащийся в воздухе водяной пар достигнет насыщения.
  • f - Относительная влажность воздуха - влажноcть воздуха, измеренная на высоте 2 м над землей.
  • Te - Эффективная температура - температура, которую ощущает одетый по сезону человек в тени. Характеристика душности погоды. При расчете учитывается влияние влажности воздуха и скорости ветра на теплоощущения человека.
  • Tes - Эффективная температура на солнце - температура, которую ощущает человек, с поправкой на солнечный нагрев. Характеристика знойности погоды. Зависит от высоты солнца над горизонтом, облачности и скорости ветра. Ночью, в пасмурную погоду, а также при ветре 12 м/с и более поправка равна нулю.
  • P - Атмосферное давление - приведенное к уровню моря атмосферное давление.
  • Po - Атмосферное давление - измеренное на уровне метеостанции атмосферное давление.
  • Tmin - Минимальная температура - минимум температуры воздуха на высоте 2 м над землей.
  • Tmax - Максимальная температура - максимум температуры воздуха на высоте 2 м над землей.
  • R - Количество осадков - Количество выпавших осадков за период времени, мм. При наведении курсора мыши на число - период времени, за который выпало указанное количество осадков.
  • R24 - Количество осадков - Количество выпавших осадков за 24 часа, мм.
  • S - Снежный покров - Высота снежного покрова, см. При наведении курсора мыши на число - состояние снежного покрова и степень покрытия местности в баллах.